Regional Weather Roundup
Issued by NWS Upton, NY

Current Version | Previous Version | Text Only | Print | Product List | Glossary On
Versions: 1 2 3 4 5 6 7 8 9 10 11 12 13 14 15 16 17 18 19 20 21 22 23 24 25 26 27 28 29 30 31 32 33 34 35 36 37 38 39 40 41 42 43 44 45 46 47 48 49 50
000
ASUS41 KOKX 010505
RWROKX

REGIONAL WEATHER ROUNDUP
NATIONAL WEATHER SERVICE NEW YORK NY
1200 AM EST SUN FEB 01 2015

NOTE: "FAIR" INDICATES FEW OR NO CLOUDS BELOW 12,000 FEET WITH NO
SIGNIFICANT WEATHER AND/OR OBSTRUCTIONS TO VISIBILITY.

NYZ071-072-176-178-NJZ106-104-010600-
NEW YORK CITY METRO AREA


CITY           SKY/WX    TMP DP  RH WIND       PRES   REMARKS
CENTRAL PARK   CLEAR     20   5  52 MISG      30.21F
LAGUARDIA APRT CLEAR     21   7  54 NW9       30.21S WCI  11
KENNEDY INTL   FAIR      22   6  50 W8        30.22F WCI  12
NEWARK/LIBERTY CLEAR     19   6  57 W7        30.23R WCI  10
BRNX BOT. GARD   N/A    N/A N/A N/A W20       30.20R
TETERBORO      CLEAR     19   5  54 W7        30.21S WCI  10
$$

NYZ177-179-078>081-010600-
LONG ISLAND NEW YORK

CITY           SKY/WX    TMP DP  RH WIND       PRES   REMARKS
FARMINGDALE    CLEAR     19   5  54 W5        30.20S WCI  12
ISLIP          CLEAR     16   4  59 W6        30.17F WCI   7
SHIRLEY        CLEAR     14   2  58 CALM      30.19F
WESTHAMPTON    CLEAR     17   4  56 W12       30.19S WCI   4
MONTAUK POINT    N/A     20   7  57 W14G25    30.15R WCI   7
$$

NYZ052-065-067-010600-
HUDSON VALLEY

CITY           SKY/WX    TMP DP  RH WIND       PRES   REMARKS
WHITE PLAINS   PTCLDY    17   5  59 W5        30.14F WCI  10
NEWBURGH       CLEAR     14   7  73 W14       30.16S WCI  -1
MONTGOMERY     PTCLDY    13   3  64 SW10      30.15F WCI   0
POUGHKEEPSIE   CLEAR      6  -3  66 CALM      30.17F
ALBANY         FLURRIES  10   3  73 CALM      30.17F
$$

NJZ001-105-106-008-010-013-015-019>022-104-010600-
NEW JERSEY

CITY           SKY/WX    TMP DP  RH WIND       PRES   REMARKS
NEWARK/LIBERTY CLEAR     19   6  57 W7        30.23R WCI  10
TETERBORO      CLEAR     19   5  54 W7        30.21S WCI  10
CALDWELL       CLEAR     14   4  64 CALM      30.22R
MORRISTOWN     CLEAR     14   9  79 CALM      30.22S
SOMERVILLE     PTCLDY    12   4  70 CALM      30.21S
SUSSEX         MOCLDY     6   1  80 SW5       30.17S WCI  -3
ANDOVER          N/A      3  -1  83 CALM      30.18F
TRENTON        CLEAR     20   6  55 W3        30.23R
MILLVILLE      CLEAR     15   9  76 W3        30.26S
ATLANTIC CITY  CLEAR     23   8  52 W6        30.25S WCI  16
WRIGHTSTOWN    CLEAR     22   8  56 W6        30.21S WCI  14
TOMS RIVER     CLEAR     12   9  85 CALM      30.24S
BELMAR         CLEAR     19   3  49 W5        30.21S WCI  13
$$

PAZ047>061-062-071-010600-
EASTERN PENNSYLVANIA

CITY           SKY/WX    TMP DP  RH WIND       PRES   REMARKS
PHILADELPHIA   PTCLDY    23  10  57 W10       30.27R WCI  12
ALLENTOWN      CLEAR     11   3  70 CALM      30.21R
SCRANTON       PTCLDY     9   3  77 CALM      30.15F
$$

CTZ002-004>006-009-010-012-RIZ004-006-007-MAZ004-011-015-010600-
SOUTHERN NEW ENGLAND
 IN CT

CITY           SKY/WX    TMP DP  RH WIND       PRES   REMARKS
BRADLEY INTL   PTCLDY    16   2  54 NW13      30.11S WCI   2
HARTFORD       CLEAR     15   3  59 W3        30.15S
DANBURY        PTCLDY     4  -4  69 SW3       30.15F
WTRBRY/OXFORD  CLEAR     10  -2  56 CALM      30.11S
BRIDGEPORT     CLEAR     15   4  61 W5        30.18F WCI   8
MERIDEN        CLEAR      8   0  69 CALM      30.15F
NEW HAVEN      CLEAR     17   5  59 W7        30.17S WCI   8
CHESTER        FAIR      18   5  57 NW8       30.12R WCI   7
GROTON         CLEAR     14   2  58 NW10      30.13S WCI   1
WILLIMANTIC    CLEAR     11  -2  56 CALM      30.11S

 IN RI

CITY           SKY/WX    TMP DP  RH WIND       PRES   REMARKS
PROVIDENCE     CLEAR     13  -5  44 W10       30.09R WCI   0
BLOCK ISLAND   CLEAR     18   3  53 NW20G29   30.09S WCI   1
WESTERLY       CLEAR     15  -1  49 W9G20     30.12R WCI   3

 IN MA

CITY           SKY/WX    TMP DP  RH WIND       PRES   REMARKS
BOSTON         CLEAR     14  -6  40 W12G20    30.04R WCI   0
WORCESTER      CLEAR    N/A N/A N/A W9        30.00R
WESTFIELD      CLEAR     10  -1  61 SE3       30.10S
PROVINCETOWN   CLEAR     19   3  49 NW28G39   29.99R WCI   1
NANTUCKET      FAIR      20   2  45 NW24G31   30.01R WCI   3
$$

ANZ330-335-338-340-345-350-353-355-010600-
COASTAL MARINE OBSERVATIONS


STATION/POSITION TIME  SKY/WX   TEMP    WIND        PRES    VSBY  WAVE
                                AIR SEA DIR/SP/G                  HT/PER
                 (UTC)          (F)     (DEG/KT/KT) (MB)    (MI)  (FT/S)
NY HARB ENTRANCE 0500            25 40  310/ 19/ 23 1022.9          2/ 4
4S FIRE IS       0400               36                N/A           4/ 5
20S FIRE ISLAND  0400               41              1023.0          6/ 6
23SW MTP         0500                                 N/A           5/ 6
HUDSON CANYON    NOT AVBL
EXECUTION ROCKS  0500            22 33  260/ 12/ 16   N/A
WESTERN LI SOUND 0500            22     290/  6/  8   N/A           1
CENTRAL LI SOUND 0400            21 34  300/ 17/ 23   N/A           3/ 4
EASTERN LI SOUND NOT AVBL
ROBBINS REEF     0500            21     300/ 13/ 17 1022.1
$$


>>>>>>>>>>>>>>>>>>>>>>>>>>>> KEY <<<<<<<<<<<<<<<<<<<<<<<<<<<
>                                                          <
>     SKY/WX - SKY CONDITION/PRESENT WEATHER               <
>     TMP    - TEMPERATURE IN FAHRENHEIT                   <
>     DP     - DEWPOINT IN FAHRENHEIT                      <
>     RH     - RELATIVE HUMIDITY IN PERCENT                <
>     WIND   - DIRECTION AND SPEED IN MPH                  <
>     PRES   - MEAN SEA LEVEL PRESSURE IN INCHES OF HG     <
>     WCI    - WIND CHILL INDEX                            <
>     VSB    - VISIBILITY IN MILES                         <
>     HX     - HEAT INDEX                                  <
>     TC     - TEMPERATURE IN CELSIUS                      <
>     VRB    - VARIABLE WIND DIRECTION                     <
>                                                          <
>>>>>>>>>>>>>>>>>>>>>>>>>>>> KEY <<<<<<<<<<<<<<<<<<<<<<<<<<<





USA.gov is the U.S. government's official web portal to all federal, state and local government web resources and services.